Location: Bear Branch Nature Center
(39.6445°N, 76.9901°W)
Time: 21:20:47
(UTC-05:00)

Daily predictions for brighter satellites

Satellite Brightness Start Highest point End
(mag) Time Altitude Azimuth Time Altitude Azimuth Time Altitude Azimuth
Cosmos 1818 4.5 17:02:21 10° SW 17:07:34 48° NW 17:12:50 10° NNE
IDEFIX/ARIANE 42P 3.8 17:06:22 10° S 17:11:21 48° W 17:16:22 10° NNW
COSMO-SKYMED 1 4.2 17:10:23 10° NE 17:13:10 17° E 17:15:56 10° SE
Cosmos 1937 Rocket 3.5 17:08:32 10° SSW 17:13:43 90° E 17:18:55 10° NNE
Cosmos 389 Rocket 3.0 17:10:57 10° N 17:14:13 36° ENE 17:17:26 10° SE
CZ-2C R/B 3.3 17:10:59 10° S 17:16:06 60° W 17:21:14 10° NNW
USA 238 DEB 4.2 17:10:54 10° NNW 17:17:33 41° NE 17:24:15 10° ESE
USA 238 4.2 17:11:00 10° NNW 17:17:39 40° NE 17:24:20 10° ESE
CSL-04 Rocket 3.7 17:13:12 10° SSE 17:18:33 66° ENE 17:24:00 10° N
Cosmos 2298 Rocket 4.2 17:15:14 10° SSW 17:20:33 85° WNW 17:25:54 10° NNE
Cosmos 1975 Rocket 3.1 17:16:15 10° S 17:20:42 87° E 17:25:13 10° N
Meteor 1-28 Rocket 3.6 17:17:42 10° NNE 17:21:17 41° E 17:24:51 10° S
SJ 16-02 2.7 17:19:45 10° SSE 17:23:02 21° E 17:26:21 10° NE
Abrixas rocket 3.3 17:22:27 10° W 17:25:27 33° NNW 17:28:27 10° NE
Cosmos 1697 Rocket 4.2 17:22:27 10° SE 17:25:59 17° E 17:29:26 10° ENE
USA 161 3.6 17:23:43 10° NNW 17:26:14 28° WNW 17:28:51 10° SW
Cosmos 1743 2.9 17:23:38 10° N 17:27:24 48° E 17:31:10 10° SSE
ISS -2.9 17:24:30 10° NW 17:27:30 31° NNE 17:30:28 10° E
DELTA 2 R/B (1) 3.6 17:26:31 10° WSW 17:32:06 82° S 17:37:24 12° E
Cosmos 2082 4.4 17:29:12 10° N 17:34:11 31° ENE 17:39:09 10° ESE
Meteor 1-12 Rocket 4.3 17:29:26 10° N 17:35:09 89° E 17:40:56 10° S
Aureole 1 Rocket 4.4 17:31:04 10° NNW 17:37:09 81° WSW 17:44:54 10° SSE
PSLV R/B 3.3 17:38:23 10° WSW 17:41:31 61° SSE 17:43:43 17° E
NOSS 3-2 (A) 4.4 17:40:45 10° NNW 17:47:44 40° NE 17:55:16 10° ESE
Cosmos 2227 Rocket 2.3 17:42:16 10° NNW 17:47:46 50° ENE 17:53:14 10° SE
Landsat 4 4.0 17:44:17 10° NNE 17:47:58 45° E 17:51:38 10° S
Cosmos 1536 Rocket 3.7 17:44:41 10° S 17:48:55 51° E 17:53:08 10° NNE
IRS-1A Rocket 4.2 17:44:51 10° SSE 17:50:25 68° ENE 17:55:55 10° N
Cosmos 1025 Rocket 4.3 17:47:48 10° SE 17:50:50 19° E 17:51:24 18° ENE
Atlas Centaur 2 3.5 17:47:05 10° WSW 17:51:34 26° S 17:55:18 10° SE
Cosmos 2219 3.9 17:46:13 10° NNW 17:51:42 57° WSW 17:57:11 10° S
Cosmos 1271 Rocket 2.8 17:52:09 10° NNW 17:55:57 77° W 17:59:46 10° S
Cosmos 1655 Rocket 4.4 17:51:32 10° NNW 17:57:52 69° W 18:04:13 10° S
CORIOLIS 4.4 17:53:27 10° S 17:58:51 77° WSW 18:04:17 10° NNW
Meteor 2-9 Rocket 4.1 17:53:57 10° N 17:59:26 63° ENE 18:04:45 10° SSE
ATLAS 2AS CENTAUR R/B 3.4 17:51:54 10° SW 17:59:35 66° NW 18:07:43 10° NNE
ERS-2 2.5 17:56:50 10° SE 18:00:16 38° ENE 18:03:42 10° N
SKYMED 2 3.6 17:57:13 10° NNE 18:01:30 56° E 18:05:45 10° S
Cosmos 468 4.5 17:57:47 10° NNW 18:03:06 67° ENE 18:08:21 10° SSE
Cosmos 1484 Rocket 4.4 18:01:24 10° SSW 18:05:09 39° W 18:08:57 10° NNW
Cosmos 1980 Rocket 3.3 18:01:41 10° SSE 18:05:53 22° E 18:06:35 21° E
ATLAS 3B R/B 2.5 17:59:22 10° NNW 18:06:03 74° NE 18:12:32 10° SE
MTI 3.7 18:04:09 17° NNE 18:06:32 71° ESE 18:09:46 10° S
Cosmos 2266 Rocket 3.9 18:01:34 10° N 18:07:38 68° E 18:13:45 10° SSE
MONITOR-E 4.1 18:07:57 10° SSE 18:10:55 54° ENE 18:13:54 10° N
USA 215 4.1 18:06:16 10° SSE 18:12:35 52° SW 18:18:57 10° NW
Cosmos 158 Rocket 3.8 18:08:31 10° NNW 18:13:37 81° ENE 18:18:34 10° SSE
Cosmos 2297 Rocket 2.1 18:09:09 10° NNW 18:14:49 71° ENE 18:20:27 10° SSE
SPOT 3 Rocket 3.5 18:15:12 10° SSE 18:20:18 64° ENE 18:25:26 10° N
NOSS 3-4 (A) 3.7 18:15:01 10° S 18:20:56 48° ESE 18:23:50 29° ENE
NOSS 3-4 (C) 3.7 18:15:08 10° S 18:21:02 48° ESE 18:23:53 29° ENE
Cosmos 1666 4.4 18:18:47 10° NNW 18:22:13 34° W 18:25:37 10° SSW
CZ-4 R/B 2.9 18:20:03 10° SSW 18:23:38 36° W 18:27:16 10° NNW
MINOTAUR IV R/B 4.5 18:21:57 10° NNW 18:26:25 63° ENE 18:30:50 10° SSE
Cosmos 1455 Rocket 4.5 18:23:10 10° NNW 18:27:18 40° W 18:31:23 10° SSW
Meteor 2-4 Rocket 4.0 18:23:50 10° SSW 18:29:15 64° W 18:34:37 10° N
Cosmos 1656 3.6 18:24:29 10° SSW 18:30:05 86° WNW 18:33:56 21° NNE
YAOGAN 1 3.7 18:29:45 10° S 18:33:53 45° W 18:38:03 10° NNW
Thor Agena Rocket 4.2 18:35:10 34° ESE 18:35:10 34° ESE 18:39:20 10° SSE
ALOS 2.2 18:34:06 10° S 18:38:46 83° WSW 18:43:28 10° NNW
Cosmos 1244 Rocket 4.5 18:33:34 10° N 18:39:35 54° E 18:45:35 10° SSE
Okean 2 3.2 18:38:11 10° S 18:42:16 75° E 18:42:24 74° ENE
Cosmos 2369 4.2 18:39:32 10° SW 18:45:06 57° WNW 18:49:15 18° N
Meteor 1-15 Rocket 4.3 18:39:28 10° N 18:45:27 90° WSW 18:51:21 10° S
Cosmos 2278 4.2 18:40:54 10° SW 18:46:29 58° WNW 18:50:28 20° N
Cosmos 2360 4.5 18:41:45 10° S 18:46:58 45° ESE 18:46:58 45° ESE
CENTAUR R/B 3.6 18:41:11 10° NNW 18:48:14 35° NE 18:48:45 35° NE
Hubble Space Telescope 3.2 18:46:02 10° SW 18:48:15 14° S 18:49:44 12° SSE
Cosmos 1269 Rocket 4.1 18:43:40 10° NNW 18:48:59 80° WSW 18:54:16 10° SSE
COSMO-SKYMED 1 3.8 18:45:24 10° N 18:49:29 41° WNW 18:53:32 10° SW
Cosmos 1553 Rocket 4.0 18:53:24 10° SSE 18:59:34 55° E 18:59:34 55° E
FENGYUN 3A 4.2 18:54:49 10° S 19:00:06 58° W 19:05:24 10° NNW
SJ 16-02 3.0 18:57:29 10° SW 19:01:24 32° WNW 19:03:46 19° NNW
Cosmos 1417 Rocket 4.3 18:56:20 10° S 19:02:24 67° E 19:03:20 59° NE
ISS -1.7 19:01:02 10° WNW 19:03:20 27° WSW 19:03:20 27° WSW
Gbstr 26 Del rocket 4.3 18:56:35 10° WSW 19:04:36 78° NW 19:06:48 49° NE
SL-24 R/B - RUBIN 2 4.1 19:02:46 10° SSW 19:09:04 79° ESE 19:09:21 77° E
Cosmos 1697 Rocket 3.0 19:03:46 10° SW 19:09:21 62° WNW 19:11:14 40° N
Okean 1-7 Rocket 4.1 19:05:24 10° SSW 19:08:51 53° SW 19:08:51 53° SW
FengYun 1-2 T 4.3 19:11:57 10° S 19:17:33 79° WSW 19:23:13 10° NNW
DELTA 2 R/B (1) 3.6 19:12:59 10° W 19:18:10 77° WSW 19:18:10 77° WSW
Atlas Centaur 2 4.2 19:37:38 10° SW 19:38:54 12° SSW 19:38:54 12° SSW
NOSS 3-2 (C) 4.3 19:37:46 10° NW 19:45:20 63° WSW 19:48:55 36° S
Cosmos 1980 Rocket 3.1 19:43:58 10° SW 19:48:26 45° W 19:48:26 45° W
CENTAUR R/B 4.2 20:31:34 10° NW 20:35:59 37° NW 20:35:59 37° NW
